Biloxi, MS

1:37 AM CDT on May 26, 2018 (GMT -0500)
Keesler Air Force Base

Weather History for KBIX - January, 2013

Change the Weather History Date:

Wednesday, January 9, 2013

  Actual Average Record
Temperature  
Mean Temperature 64 °F -  
Max Temperature 69 °F 56 °F 74 °F (1957)
Min Temperature 60 °F 41 °F 20 °F (1970)
Growing Degree Days 14 (Base 50)    
Moisture  
Dew Point 64 °F    
Average Humidity 93    
Maximum Humidity 100    
Minimum Humidity 86    
Precipitation  
Precipitation 0.00 in - - ()
Sea Level Pressure  
Sea Level Pressure 30.20 in    
Wind  
Wind Speed 11 mph (East)    
Max Wind Speed 15 mph    
Max Gust Speed 23 mph    
Visibility 7 miles    
Events      
Averages and records for this station are not official NWS values.
T = Trace of Precipitation, MM = Missing Value Source: NWS Daily Summary

Daily Weather History Graph

Daily Weather History Graph

Search for Another Location

Airport or City:

Astronomy

Jan. 09, 2013 Rise Set
Actual Time 6:53 AM CST 5:12 PM CST
Civil Twilight 6:27 AM CST 5:38 PM CST
Nautical Twilight 5:57 AM CST 6:08 PM CST
Astronomical Twilight 5:28 AM CST 6:37 PM CST
Moon 4:32 AM CST (1/9) 3:14 PM CST (1/9)
Length of Visible Light 11h 11m
Length of Day
10h 19m
Waning Crescent, 6% of the Moon is Illuminated
Jan 9
Waning Crescent
Jan 11
New
Jan 18
First Quarter
Jan 26
Full
Feb 3
Last Quarter

Hourly Weather History & Observations

Time (CST) Temp. Dew Point Humidity Pressure Visibility Wind Dir Wind Speed Gust Speed Precip Events Conditions
12:41 AM 62.6 °F 60.8 °F 94% 30.17 in 10.0 mi East 12.7 mph 19.6 mph N/A   Overcast
12:55 AM 63.3 °F 60.6 °F 91% 30.17 in 10.0 mi East 12.7 mph - N/A   Overcast
12:57 AM 62.6 °F 60.8 °F 94% 30.17 in 10.0 mi East 11.5 mph - N/A   Overcast
1:53 AM 60.8 °F 59.0 °F 94% 30.17 in 10.0 mi East 9.2 mph - N/A   Overcast
1:55 AM 61.2 °F 58.5 °F 91% 30.17 in 10.0 mi East 9.2 mph - N/A   Mostly Cloudy
2:55 AM 61.3 °F 59.0 °F 92% 30.17 in 10.0 mi East 8.1 mph - N/A   Partly Cloudy
3:55 AM 61.5 °F 58.8 °F 91% 30.16 in 10.0 mi East 6.9 mph - N/A   Clear
4:55 AM 62.1 °F 58.8 °F 89% 30.13 in 10.0 mi East 12.7 mph - N/A   Partly Cloudy
5:55 AM 64.0 °F 60.8 °F 89% 30.15 in 10.0 mi ESE 10.4 mph - N/A   Overcast
6:55 AM 64.0 °F 61.2 °F 90% 30.17 in 10.0 mi ESE 13.8 mph - N/A   Mostly Cloudy
7:09 AM 64.4 °F 60.8 °F 88% 30.17 in 10.0 mi ESE 10.4 mph 19.6 mph N/A   Mostly Cloudy
7:10 AM 64.4 °F 60.8 °F 88% 30.17 in 10.0 mi ESE 10.4 mph 19.6 mph N/A   Mostly Cloudy
7:31 AM 64.4 °F 62.6 °F 94% 30.19 in 10.0 mi East 10.4 mph 18.4 mph N/A   Scattered Clouds
7:36 AM 64.4 °F 62.6 °F 94% 30.19 in 10.0 mi ESE 11.5 mph 18.4 mph N/A   Mostly Cloudy
7:55 AM 65.3 °F 63.0 °F 92% 30.20 in 10.0 mi East 9.2 mph - N/A   Mostly Cloudy
8:50 AM 66.2 °F 62.6 °F 88% 30.20 in 10.0 mi East 15.0 mph - N/A   Overcast
8:55 AM 65.5 °F 62.8 °F 91% 30.20 in 10.0 mi East 11.5 mph - N/A   Overcast
9:31 AM 66.2 °F 62.6 °F 88% 30.22 in 10.0 mi East 12.7 mph 20.7 mph N/A   Overcast
9:55 AM 66.2 °F 63.3 °F 90% 30.21 in 10.0 mi East 11.5 mph - N/A   Overcast
10:55 AM 67.3 °F 63.7 °F 88% 30.21 in 10.0 mi East 10.4 mph - N/A   Overcast
11:15 AM 68.0 °F 64.4 °F 88% 30.21 in 10.0 mi East 10.4 mph - N/A   Overcast
11:55 AM 69.1 °F 64.8 °F 86% 30.20 in 10.0 mi East 9.2 mph - N/A   Overcast
12:28 PM 68.0 °F 64.4 °F 88% 30.18 in 10.0 mi East 12.7 mph 18.4 mph N/A   Overcast
12:55 PM 68.9 °F 65.3 °F 88% 30.17 in 10.0 mi East 9.2 mph 17.3 mph N/A   Overcast
1:55 PM 69.4 °F 65.5 °F 87% 30.16 in 10.0 mi East 10.4 mph - N/A   Overcast
2:55 PM 68.5 °F 65.5 °F 90% 30.15 in 10.0 mi East 10.4 mph 18.4 mph N/A   Overcast
3:12 PM 69.8 °F 66.2 °F 88% 30.15 in 10.0 mi East 15.0 mph 21.9 mph N/A   Overcast
3:55 PM 68.7 °F 66.0 °F 91% 30.16 in 10.0 mi East 12.7 mph 17.3 mph N/A   Overcast
4:32 PM 68.0 °F 66.2 °F 94% 30.17 in 10.0 mi East 10.4 mph - N/A   Overcast
4:55 PM 67.3 °F 65.5 °F 94% 30.18 in 10.0 mi East 9.2 mph - N/A   Overcast
4:57 PM 68.0 °F 66.2 °F 94% 30.18 in 10.0 mi East 9.2 mph - N/A   Overcast
5:23 PM 66.2 °F 64.4 °F 94% 30.17 in 2.5 mi East 10.4 mph - N/A   Overcast
5:55 PM 66.7 °F 65.5 °F 96% 30.17 in 2.0 mi East 12.7 mph - N/A   Overcast
6:55 PM 66.9 °F 65.8 °F 96% 30.19 in 2.0 mi East 9.2 mph - N/A   Overcast
7:55 PM 67.1 °F 66.2 °F 97% 30.20 in 6.0 mi East 15.0 mph 23.0 mph N/A   Overcast
8:14 PM 68.0 °F 66.2 °F 94% 30.21 in 5.0 mi East 10.4 mph - N/A   Overcast
8:55 PM 67.5 °F 66.6 °F 97% 30.21 in 4.0 mi East 12.7 mph - N/A   Overcast
9:03 PM 68.0 °F 66.2 °F 94% 30.21 in 3.0 mi East 10.4 mph 19.6 mph N/A   Overcast
9:14 PM 68.0 °F 66.2 °F 94% 30.21 in 3.0 mi ESE 10.4 mph 18.4 mph N/A   Overcast
9:23 PM 68.0 °F 66.2 °F 94% 30.22 in 4.0 mi East 8.1 mph - N/A   Overcast
9:40 PM 68.0 °F 66.2 °F 94% 30.22 in 4.0 mi ESE 11.5 mph 20.7 mph N/A   Overcast
9:53 PM 68.0 °F 66.2 °F 94% 30.22 in 2.5 mi ESE 15.0 mph 20.7 mph N/A   Overcast
9:55 PM 67.5 °F 66.9 °F 98% 30.22 in 2.5 mi ESE 13.8 mph 20.7 mph N/A   Overcast
9:56 PM 68.0 °F 66.2 °F 94% 30.22 in 2.0 mi ESE 13.8 mph 20.7 mph N/A   Overcast
9:57 PM 68.0 °F 66.2 °F 94% 30.22 in 2.0 mi ESE 13.8 mph 20.7 mph N/A   Overcast
10:00 PM 68.0 °F 66.2 °F 94% 30.22 in 1.8 mi ESE 11.5 mph 20.7 mph N/A   Overcast
10:24 PM 68.0 °F 66.2 °F 94% 30.23 in 2.0 mi ESE 10.4 mph - N/A   Overcast
10:46 PM 68.0 °F 66.2 °F 94% 30.23 in 2.5 mi ESE 10.4 mph 18.4 mph N/A   Overcast
10:50 PM 68.0 °F 66.2 °F 94% 30.23 in 3.0 mi ESE 10.4 mph 18.4 mph N/A   Overcast
10:53 PM 68.0 °F 66.2 °F 94% 30.23 in 3.0 mi ESE 10.4 mph 18.4 mph N/A   Overcast
10:55 PM 67.3 °F 66.7 °F 98% 30.23 in 3.0 mi ESE 9.2 mph 18.4 mph N/A   Overcast
11:12 PM 68.0 °F 66.2 °F 94% 30.22 in 2.5 mi East 10.4 mph - N/A   Overcast
11:13 PM 68.0 °F 66.2 °F 94% 30.22 in 2.5 mi ESE 10.4 mph - N/A   Overcast
11:16 PM 68.0 °F 66.2 °F 94% 30.22 in 2.0 mi ESE 11.5 mph - N/A   Overcast
11:23 PM 68.0 °F 66.2 °F 94% 30.22 in 2.5 mi East 11.5 mph - N/A   Overcast
11:25 PM 68.0 °F 66.2 °F 94% 30.22 in 2.5 mi ESE 12.7 mph - N/A   Overcast
11:29 PM 68.0 °F 66.2 °F 94% 30.22 in 3.0 mi ESE 11.5 mph - N/A   Overcast
11:35 PM 68.0 °F 66.2 °F 94% 30.22 in 4.0 mi ESE 9.2 mph 18.4 mph N/A   Overcast
11:55 PM 67.8 °F 67.3 °F 98% 30.22 in 5.0 mi ESE 10.4 mph 18.4 mph N/A   Overcast
11:59 PM 68.0 °F 68.0 °F 100% 30.22 in 5.0 mi ESE 13.8 mph 23.0 mph N/A   Overcast